sat.trackr.live / text

‹ back to catalog

YAM-13

NORAD 68993 · 2026-100P

PAYLOAD ACTIVE UNKNOWN

§ Identity

Operator
Country
US
Launch date
2026-05-03
Launch site
AFWTR
Launch vehicle
Mass (kg)
RCS (m²)

External: N2YO · Heavens-Above · Gunter

§ Orbital elements

Epoch: 2026-05-25T03:14:56.083776Z

Period
96.54 min
Inclination
97.7393°
Eccentricity
0.0002483
Mean motion
14.91683011 rev/d
Perigee alt
591.0 km
Apogee alt
594.4 km
Semi-major
6,970.8 km
B*
1.5763e-4
RAAN
43.0175°
Arg perigee
188.9284°
Mean anomaly
171.1890°
Rev number
326

§ Raw data

YAM-131 68993U 26100P   26145.13537134  .00001530  00000+0  15763-3 0  99922 68993  97.7393  43.0175 0002483 188.9284 171.1890 14.91683011  3264

JSON: /api/v1/satellites/68993 · /tle

For live sub-satellite position, see the globe view (requires WebGL).

§ Visibility from observer

Set your observer location to see the next 7 days of passes ≥ 10°. The values pass through the URL so the page stays shareable.

No JS? Fill the form by hand. The geolocation button needs JavaScript.